Tracking 19562 objects as of 24-Mar-2019
HD Live streaming from Space Station
objects crossing your sky now

COSMOS 2371

Track COSMOS 2371 now!
COSMOS 2371 is classified as:


NORAD ID: 26394
Int'l Code: 2000-036A
Perigee: 35,777.5 km
Apogee: 35,808.6 km
Inclination: 12.4 °
Period: 1,436.1 minutes
Semi major axis: 42164 km
RCS: 11.76 m2 (large)
Launch date: July 4, 2000
Source: Commonwealth of Independent States (former USSR) (CIS)
Launch site: TYURATAM MISSILE AND SPACE COMPLEX (TTMTR)

Military data relay satellite; normal four-satellite complement (called Sokol under commercial use).
aabbcc
Your satellite tracking list
Your tracking list is empty




NASA's NSSDC Master Catalog

Two Line Element Set (TLE):
1 26394U 00036A   19082.89577756 -.00000170 +00000-0 +00000-0 0  9996
2 26394 012.4475 027.1487 0003689 339.0119 217.2845 01.00274307068546
Source of the keplerian elements: AFSPC